www.pogodaiklimat.ru

Погода и климат >> Архив погоды >> Россия >> Амурская область >> Бомнак


АРХИВ ПОГОДЫ в Бомнаке

Время (UTC), дата Ветер
(напр.,м/с)
 
Видим.   Явления Облачность Т
(С)
Тd
(С)
f
(%)
Тe
(С)
Тes
(С)
Комфортность P
(гПа)
Po
(гПа)
Тmin
(С)
Tmax
(С)
R
(мм)
R24
(мм)
S
(см)
03 10.09 ЮЗ 3 50 км 1/0
[Ac trans]
+12.5 +1.5 47 +11 +18 1016.0 973.0
06 10.09 ЮЗ 3 50 км ясно +14.6 +2.5 44 +14 +18 1015.0 972.4
09 10.09 З 2 50 км 1/1 600 м
[Sc]
+14.2 +2.6 46 +14 +14 1015.4 972.7
12 10.09 СЗ 2 50 км 9/4 600 м
[Sc Ac trans Ci fib]
+9.6 +3.5 66 +8 +8 1017.3 973.9 +14.6
15 10.09 СЗ 1 50 км 9/3 600 м
[Sc Ac trans Ci fib]
+5.8 +4.0 88 +5 +5 1018.1 974.1
18 10.09 В 1 50 км 6/0
[Ac trans]
+4.4 +3.4 93 +3 +3 1018.6 974.3
21 10.09 штиль 0 50 км 8/0
[Ac cast]
+2.8 +1.6 92 +2 +2 1019.4 974.8
00 11.09 В 3 50 км 3/0
[Ac trans]
+7.5 +3.0 73 +5 +7 1018.7 974.9 +1.8
03 11.09 ЮЗ 2 50 км 1/0
[Ac trans]
+13.5 +5.3 58 +13 +21 1017.0 974.2
06 11.09 ЮЗ 2 50 км 3/3 600 м
[Cu hum]
+17.1 +4.7 44 +17 +21 1014.6 972.4
09 11.09 штиль 0 50 км 6/4 600 м
[Cu hum Ac trans Ci fib]
+16.6 +3.3 41 +17 +17 1014.0 971.7
12 11.09 ЮВ 1 50 км 8/0
[Ac trans Ci fib]
+10.5 +5.9 73 +10 +10 1015.3 972.2 +17.6
15 11.09 В 2 50 км 10/6 600 м
[Sc Ac trans Ci fib]
+10.0 +4.3 68 +9 +9 1015.9 972.6
18 11.09 В 3 50 км 10/4 600 м
[Sc Ac trans Ci fib]
+8.8 +3.5 69 +7 +7 1015.6 972.2
21 11.09 В 3 50 км 8/4 600 м
[Sc Ac As Ci fib]
+7.8 +2.9 71 +5 +5 1016.1 972.4
00 12.09 В 4 50 км 3/0
[Ac trans Ci fib]
+11.6 +4.4 61 +10 +12 1014.6 971.6 +7.7
03 12.09 В 6 50 км 3/0
[Ci fib]
+17.3 +5.6 46 +17 +20 1011.4 969.2
06 12.09 Ю 3 50 км 4/1 600 м
[Cu hum Ci fib]
+20.5 +6.8 41 +22 +25 комфорт 1008.6 967.0
09 12.09 ЮВ 3 50 км 10/5 600 м
[Sc Ac trans Ci fib]
+18.0 +7.7 51 +18 +18 1006.9 965.1
12 12.09 ЮВ 4 50 км 10/6 600 м
[Sc Ac trans Ci fib]
+16.5 +7.9 57 +16 +16 1006.3 964.4 +20.5
18 12.09 В 3 50 км 10/10 600 м
[Sc]
+13.9 +8.4 69 +13 +13 1002.5 960.4
21 12.09 ЮВ 4 50 км 9/8 600 м
[Sc Ac trans]
+15.0 +7.5 61 +14 +14 1000.3 958.4
00 13.09 ЮВ 5
{11}
50 км 10/10 600 м
[Cb cap]
+13.9 +7.8 67 +12 +12 998.0 956.1 +13.7
03 13.09 Ю 4
{12}
4000 м ливневой дождь 10/10 600 м
[Cb cap]
+11.9 +9.8 87 +10 +10 996.1 954.0 +11.9
06 13.09 Ю 5-11
{12}
10 км слаб. ливневой дождь 10/10 600 м
[Cb cap]
+12.2 +10.2 88 +10 +10 993.8 951.8
09 13.09 ЮЗ 4
{13}
10 км слаб. ливневой дождь 10/10 600 м
[Cb cap]
+8.9 +7.1 88 +6 +6 994.9 952.4
12 13.09 СЗ 5-10
{10}
10 км слаб. ливневой дождь 10/10 600 м
[Cb cap]
+5.8 +4.4 91 +1 +1 996.7 953.6 +14.4 8
15 13.09 З 5
{15}
50 км {ливн. осадки} 10/10 600 м
[Cb cap]
+5.8 +2.1 77 +2 +2 1010.2 957.7
18 13.09 СЗ 5 50 км {ливн. осадки} 3/1 600 м
[Sc diur, vesp Ac trans Ci fib]
+3.6 -0.3 76 -1 -1 1004.2 960.4
21 13.09 С 1 50 км ясно +1.7 -2.6 73 0 0 1007.3 963.1
00 14.09 СЗ 4 50 км ясно +6.4 -2.0 55 +3 +5 1008.7 965.1 +1.5 2
03 14.09 СЗ 4 50 км ясно +10.8 -4.4 34 +9 +14 1008.3 965.4
06 14.09 ЮЗ 3 50 км 1/1 600 м
[Cu hum]
+12.7 -0.4 40 +12 +15 1007.2 964.6
09 14.09 штиль 0 50 км 8/3 600 м
[Sc diur, vesp Ac trans Ci fib]
+12.0 +0.5 45 +12 +12 1007.3 964.6
12 14.09 В 2 50 км 10/5 600 м
[Sc Ac trans Ci fib]
+8.6 +0.7 58 +7 +7 1008.0 964.8 +13.7
15 14.09 В 2 50 км 10/10 600 м
[Cb cap]
+7.7 -0.5 56 +6 +6 1007.5 964.1
18 14.09 В 4 50 км 10/10 600 м
[Cb cap]
+6.5 -0.1 63 +3 +3 1005.9 962.5
21 14.09 В 4 50 км 8/8 600 м
[Cb cap]
+6.1 +0.7 68 +3 +3 1005.0 961.5
00 15.09 В 5 50 км 10/8 600 м
[Cb cap Ac trans Ci fib]
+8.3 +1.7 63 +5 +5 1002.8 959.8 +6.1
03 15.09 ЮВ 3 50 км 10/10 600 м
[Cb cap]
+9.8 +4.9 72 +8 +8 1000.8 958.1
06 15.09 ЮВ 5 50 км 10/8 600 м
[Cb cap Ac trans Ci fib]
+10.5 +6.9 78 +8 +8 997.4 955.0
09 15.09 В 3
{10}
4000 м ливневой дождь 10/10 600 м
[Cb cap]
+8.0 +7.0 93 +5 +5 995.7 953.0
12 15.09 З 7-15
{15}
10 км слаб. ливневой дождь 10/10 600 м
[Cb cap]
+2.6 +0.6 87 -4 -4 998.2 954.5 +11.3 18
15 15.09 Ю 3
{15}
20 км слаб. ливневой дождь 10/10 600 м
[Cb cap]
+1.9 -0.5 84 -2 -2 999.9 956.0
18 15.09 ЮВ 2 50 км {ливн. осадки} 9/6 600 м
[Sc diur, vesp Ac trans]
+1.0 -1.9 81 -2 -2 1001.3 957.2
21 15.09 В 2 50 км 9/8 600 м
[Cb calv Ac trans]
+0.3 -1.9 85 -3 -3 1001.5 957.3
00 16.09 СЗ 1 50 км {ливн. осадки} 8/6 600 м
[Cb calv Ac trans]
+1.7 -2.0 76 0 +1 1003.2 959.1 +0.2 0.9
03 16.09 ЮЗ 4 50 км {ливн. осадки} 10/8 600 м
[Cb cap Ac trans Ci fib]
+4.1 +0.2 76 -0 0 1006.8 962.8
06 16.09 ЮЗ 4 50 км {ливн. осадки} 10/8 600 м
[Cb cap Ac trans Ci fib]
+4.1 +0.2 76 -0 0 1006.8 962.8
09 16.09 З 3 50 км 10/10 600 м
[Cb cap]
+3.0 -0.5 78 -1 -1 1008.8 964.5
12 16.09 З 2 50 км 10/10 600 м
[Cb cap]
+3.3 -1.2 72 +1 +1 1010.2 966.1 +5.6 0.5
15 16.09 З 2 50 км 4/3 600 м
[Sc diur, vesp Ac trans]
+1.7 -2.6 73 -1 -1 1011.1 966.7
18 16.09 СЗ 2 50 км 3/0
[Ci fib]
-1.0 -2.9 87 -5 -5 1012.2 967.3
21 16.09 С 1 50 км 6/0
[Ac trans Ci fib]
-2.1 -3.3 91 -4 -4 1013.0 967.9
00 17.09 СВ 2 50 км 10/9 600 м
[Sc Ci fib]
+0.6 -2.6 79 -3 -3 1015.0 968.3 -2.5

 

Местоположение метеостанции Бомнак (Амурская область, Россия): широта 54.72 долгота 128.80 высота над уровнем моря 364 м.

В архиве по умолчанию представлена погода в Бомнаке за последнюю неделю. Архивные данные за месяц целиком и за предыдущие месяцы, начиная с января 2011 года, Вы можете получить, выбрав интересующий диапазон дат из раскрывающегося списка и нажав кнопку "Ввод!".


*Определитесь, кто Вы:
робот инопланетянин человек

Внимание! Время в таблицах - всемирное. Для получения местного времени необходимо прибавить поправку, которая равна 9 ч.

Смотрите также архив погоды в соседних городах и на ближайших метеорологических станциях:

Погода в Береговом (Амурская область, Россия) (98 км)
Погода в Локшаке (Амурская область, Россия) (103 км)
Погода в Зее (Амурская область, Россия) (151 км)
Погода в Дугде (Амурская область, Россия) (171 км)
Погода в Октябрьский Прииск (Амурская область, Россия) (192 км)
Погода в Токо (Якутия, Россия) (226 км)
Погода в Магдагачи (Амурская область, Россия) (241 км)
Погода в Тыгде (Амурская область, Россия) (243 км)
Погода в Тынде (Амурская область, Россия) (273 км)
Погода в Норске (Амурская область, Россия) (273 км)

Пояснения к столбцам:

Ветер - указаны скорость ветра в м/с - средняя за 10 мин, порывы в срок и между сроками (в фигурных скобках) и направление, откуда дует ветер: С - северный, СВ - северо-восточный, В - восточный, ЮВ - юго-восточный, Ю - южный, ЮЗ - юго-западный, З - западный, СЗ - северо-западный.
Видимость - горизонтальная дальность видимости в метрах или километрах. При видимости от 1 до 10 км при отсутствии осадков обычно наблюдается дымка, при ухудшении видимости до 1 км и менее - туман. В сухую погоду видимость может ухудшаться дымом, пылью или мглою.
Явления - указаны атмосферные явления, наблюдавшиеся в срок или в последний час перед сроком; фигурными скобками обозначены явления, наблюдавшиеся между сроками (за 1-3 часа до срока); квадратными скобками обозначены град или гололедные отложения с указанием их диаметра в мм.
Облачность - указаны через наклонную черту общая и нижняя облачность в баллах и высота нижней границы облаков в метрах; квадратными скобками обозначены формы облаков: Ci - перистые, Cs - перисто-слоистые, Cc - перисто-кучевые, Ac - высококучевые, As - высокослоистые, Sc - слоисто-кучевые, Ns - слоисто-дождевые, Cu - кучевые, Cb - кучево-дождевые. Подробнее классификацию облаков см. в Атласе облаков (PDF).
T - Температура воздуха - температура, измеренная на высоте 2 м над землей.
Td - Температура точки росы - температура, при понижении до которой содержащийся в воздухе водяной пар достигнет насыщения.
f - Относительная влажность воздуха - влажноcть воздуха, измеренная на высоте 2 м над землей.
Te - Эффективная температура - температура, которую ощущает одетый по сезону человек в тени. Характеристика душности погоды. При расчете учитывается влияние влажности воздуха и скорости ветра на теплоощущения человека.
Tes - Эффективная температура на солнце - температура, которую ощущает человек, с поправкой на солнечный нагрев. Характеристика знойности погоды. Зависит от высоты солнца над горизонтом, облачности и скорости ветра. Ночью, в пасмурную погоду, а также при ветре 12 м/с и более поправка равна нулю.
P - Атмосферное давление - приведенное к уровню моря атмосферное давление.
Po - Атмосферное давление - измеренное на уровне метеостанции атмосферное давление.
Tmin - Минимальная температура - минимум температуры воздуха на высоте 2 м над землей.
Tmax - Максимальная температура - максимум температуры воздуха на высоте 2 м над землей.
R - Количество осадков - Количество выпавших осадков за период времени, мм. При наведении курсора мыши на число - период времени, за который выпало указанное количество осадков.
R24 - Количество осадков - Количество выпавших осадков за 24 часа, мм.
S - Снежный покров - Высота снежного покрова, см. При наведении курсора мыши на число - состояние снежного покрова и степень покрытия местности в баллах.